Stone Corral
DateTemperatureDew Point
05/07 - 11:00 PM71.4°59.5°
05/07 - 10:45 PM72.9°59.7°
05/07 - 10:30 PM72.9°59.3°
05/07 - 10:15 PM72.3°59.3°
05/07 - 10:00 PM70.0°59.6°
05/07 - 09:45 PM69.5°60.6°
05/07 - 09:30 PM70.0°60.6°
05/07 - 09:15 PM70.6°60.5°
05/07 - 09:00 PM71.5°60.4°
05/07 - 08:45 PM72.5°59.9°
05/07 - 08:30 PM73.7°59.5°
05/07 - 08:15 PM75.0°59.4°
05/07 - 08:00 PM76.4°59.4°
05/07 - 07:45 PM78.7°59.7°
05/07 - 07:30 PM80.6°59.1°
05/07 - 07:15 PM82.1°58.7°
05/07 - 07:00 PM83.5°58.7°
05/07 - 06:45 PM84.6°58.6°
05/07 - 06:30 PM85.5°58.5°
05/07 - 06:15 PM86.4°58.5°
05/07 - 06:00 PM87.2°58.7°
05/07 - 05:45 PM87.8°58.8°
05/07 - 05:30 PM88.2°58.9°
05/07 - 05:15 PM88.8°59.0°
05/07 - 05:00 PM89.2°59.3°
05/07 - 04:45 PM89.4°58.9°
05/07 - 04:30 PM89.8°59.0°
05/07 - 04:15 PM90.0°59.2°
05/07 - 04:00 PM90.4°59.4°
05/07 - 03:45 PM90.6°59.5°
05/07 - 03:30 PM90.1°59.4°
05/07 - 03:15 PM90.0°59.2°
05/07 - 03:00 PM89.2°59.5°
05/07 - 02:45 PM89.6°59.4°
05/07 - 02:30 PM89.8°59.7°
05/07 - 02:15 PM89.6°59.5°
05/07 - 02:00 PM88.3°59.3°
05/07 - 01:45 PM88.2°59.3°
05/07 - 01:30 PM89.2°59.4°
05/07 - 01:15 PM87.7°58.6°
05/07 - 01:00 PM87.0°58.2°
05/07 - 12:45 PM86.5°58.3°
05/07 - 12:30 PM86.4°58.7°
05/07 - 12:15 PM84.2°57.8°
05/07 - 12:00 PM85.0°57.9°
05/07 - 11:45 AM85.9°58.1°
05/07 - 11:30 AM85.1°58.4°
05/07 - 11:15 AM83.3°57.3°
05/07 - 11:00 AM82.3°57.2°
05/07 - 10:45 AM81.3°57.2°
05/07 - 10:30 AM78.8°57.5°
05/07 - 10:15 AM77.0°56.8°
05/07 - 10:00 AM75.6°57.0°
05/07 - 09:45 AM74.7°56.9°
05/07 - 09:30 AM73.3°56.9°
05/07 - 09:15 AM71.8°56.1°
05/07 - 09:00 AM70.4°56.3°
05/07 - 08:45 AM68.9°56.0°
05/07 - 08:30 AM67.2°55.9°
05/07 - 08:15 AM65.3°56.2°
05/07 - 08:00 AM63.4°56.2°
05/07 - 07:45 AM61.7°55.8°
05/07 - 07:30 AM60.8°55.7°
05/07 - 07:15 AM60.3°55.0°
05/07 - 07:00 AM59.1°53.8°
05/07 - 06:45 AM58.0°53.1°
05/07 - 06:30 AM57.5°53.0°
05/07 - 06:15 AM56.5°52.5°
05/07 - 06:00 AM56.3°52.2°
05/07 - 05:45 AM56.6°51.8°
05/07 - 05:30 AM57.5°52.1°
05/07 - 05:15 AM57.8°52.2°
05/07 - 05:00 AM57.7°52.1°
05/07 - 04:45 AM59.3°52.3°
05/07 - 04:30 AM60.3°52.2°
05/07 - 04:15 AM61.0°52.4°
05/07 - 04:00 AM61.9°52.4°
05/07 - 03:45 AM61.2°52.2°
05/07 - 03:30 AM61.0°52.2°
05/07 - 03:15 AM62.3°52.4°
05/07 - 03:00 AM63.4°52.5°
05/07 - 02:45 AM63.8°52.3°
05/07 - 02:30 AM64.0°52.4°
05/07 - 02:15 AM64.1°52.3°
05/07 - 02:00 AM64.0°52.3°
05/07 - 01:45 AM63.6°52.3°
05/07 - 01:30 AM63.0°52.4°
05/07 - 01:15 AM62.4°52.4°
05/07 - 01:00 AM62.7°52.5°
05/07 - 12:45 AM64.4°53.0°
05/07 - 12:30 AM63.9°52.4°
05/07 - 12:15 AM62.8°52.7°
05/07 - 12:00 AM60.7°52.7°
05/06 - 11:45 PM60.9°52.7°
05/06 - 11:30 PM61.8°52.8°
05/06 - 11:15 PM63.5°53.2°
05/06 - 11:00 PM65.4°53.4°
05/06 - 10:45 PM66.0°52.8°
05/06 - 10:30 PM66.3°53.1°
05/06 - 10:15 PM67.0°53.1°
05/06 - 10:00 PM67.1°52.9°
05/06 - 09:45 PM65.9°52.8°
05/06 - 09:30 PM63.9°52.9°
05/06 - 09:15 PM63.9°52.7°
05/06 - 09:00 PM64.4°52.8°
05/06 - 08:45 PM65.4°53.2°
05/06 - 08:30 PM66.8°53.3°
05/06 - 08:15 PM68.0°53.4°
05/06 - 08:00 PM69.5°53.5°
05/06 - 07:45 PM71.0°53.8°
05/06 - 07:30 PM72.5°53.7°
05/06 - 07:15 PM73.9°53.7°
05/06 - 07:00 PM75.1°53.5°
05/06 - 06:45 PM76.2°53.5°
05/06 - 06:30 PM77.0°53.5°
05/06 - 06:15 PM77.6°53.3°
05/06 - 06:00 PM78.5°53.6°
05/06 - 05:45 PM79.1°53.7°
05/06 - 05:30 PM79.6°53.8°
05/06 - 05:15 PM79.5°53.7°
05/06 - 05:00 PM79.1°53.3°
05/06 - 04:45 PM79.9°53.6°
05/06 - 04:30 PM79.9°53.6°
05/06 - 04:15 PM79.9°53.7°
05/06 - 04:00 PM80.0°53.6°
05/06 - 03:45 PM79.9°53.5°
05/06 - 03:30 PM81.0°53.7°
05/06 - 03:15 PM80.4°53.4°
05/06 - 03:00 PM81.2°53.3°
05/06 - 02:45 PM82.8°53.8°
05/06 - 02:30 PM81.0°53.6°
05/06 - 02:15 PM80.7°53.4°
05/06 - 02:00 PM80.5°53.3°
05/06 - 01:45 PM80.3°52.9°
05/06 - 01:30 PM80.3°53.2°
05/06 - 01:15 PM80.4°52.7°
05/06 - 01:00 PM80.5°53.1°
05/06 - 12:45 PM79.1°52.5°
05/06 - 12:30 PM79.7°52.3°
05/06 - 12:15 PM79.0°52.6°
05/06 - 12:00 PM78.0°52.2°
05/06 - 11:45 AM77.9°51.9°
05/06 - 11:30 AM76.1°52.3°
05/06 - 11:15 AM74.0°51.0°
05/06 - 11:00 AM75.1°51.9°
05/06 - 10:45 AM74.1°52.6°
05/06 - 10:30 AM72.1°52.6°
05/06 - 10:15 AM70.7°52.3°
05/06 - 10:00 AM68.9°51.9°
05/06 - 09:45 AM67.5°51.3°
05/06 - 09:30 AM66.4°51.3°
05/06 - 09:15 AM65.6°51.5°
05/06 - 09:00 AM64.0°50.8°
05/06 - 08:45 AM63.0°50.8°
05/06 - 08:30 AM61.5°50.2°
05/06 - 08:15 AM60.7°49.7°
05/06 - 08:00 AM59.6°49.7°
05/06 - 07:45 AM58.5°48.3°
05/06 - 07:30 AM57.7°47.8°
05/06 - 07:15 AM56.3°47.6°
05/06 - 07:00 AM55.3°47.3°
05/06 - 06:45 AM54.8°46.7°
05/06 - 06:30 AM54.1°46.7°
05/06 - 06:15 AM53.2°46.6°
05/06 - 06:00 AM53.1°46.7°
05/06 - 05:45 AM53.6°46.5°
05/06 - 05:30 AM53.1°46.3°
05/06 - 05:15 AM52.8°46.7°
05/06 - 05:00 AM52.2°47.2°
05/06 - 04:45 AM51.1°46.9°
05/06 - 04:30 AM51.3°46.7°
05/06 - 04:15 AM52.3°47.0°
05/06 - 04:00 AM52.0°46.8°
05/06 - 03:45 AM51.3°47.2°
05/06 - 03:30 AM50.3°47.1°
05/06 - 03:15 AM49.3°46.3°
05/06 - 03:00 AM49.8°46.3°
05/06 - 02:45 AM51.0°46.6°
05/06 - 02:30 AM52.8°47.1°
05/06 - 02:15 AM54.5°47.1°
05/06 - 02:00 AM55.2°46.6°
05/06 - 01:45 AM54.6°46.9°
05/06 - 01:30 AM53.9°47.1°
05/06 - 01:15 AM55.4°47.2°
05/06 - 01:00 AM56.4°46.8°
05/06 - 12:45 AM56.7°46.7°
05/06 - 12:30 AM56.3°46.8°
05/06 - 12:15 AM55.9°47.0°
05/06 - 12:00 AM56.3°46.6°
05/05 - 11:45 PM56.9°46.7°
05/05 - 11:30 PM57.8°46.8°